Home   Weather   Timmins   Past weeks

Flag for Canada Past Weather in Timmins, Ontario, Canada — Yesterday and Last 2 Weeks

28 °F

Passing clouds.

Feels Like: 25 °F
Forecast: 22 / 34 °F
Wind: 3 mph from East

Location: Timmins

Current Time: Oct 26, 2016 at 9:09:20 PM

Latest Report: Oct 26, 2016 at 8:00 PM

Visibility: 15 mi

Pressure: 30.52 "Hg

Humidity: 69%

Dew Point: 19 °F

Location of TimminsLocation

Past Weather in Timmins — Graph


Timmins Temperature Yesterday

Maximum temperature yesterday: 37 °F (at 2:00 PM)
Minimum temperature yesterday: 27 °F (at 8:00 PM)
Average temperature yesterday: 31 °F

High & Low Weather Summary for the Past Weeks

High66 °F (Oct 12, 1:00 PM)100% (Oct 12, 11:00 PM)30.62 "Hg (Oct 12, 11:00 PM)
Low23 °F (Oct 23, 2:00 AM)52% (Oct 25, 2:00 PM)29.12 "Hg (Oct 18, 5:48 AM)
Average39 °F84%30.02 "Hg
* Reported Oct 11 8:00 PM — Oct 26 8:00 PM, Timmins, Weather by CustomWeather, © 2016

Note: Actual official high and low records may vary slightly from our data, if they occured in-between our weather recording intervals... More about our weather records


Timmins Weather History for the Previous 24 Hours

Scroll right to see more
Time TempWeatherWind HumidityBarometerVisibility
8:00 PM
Wed, Oct 26
28 °FPassing clouds.3 mph69%30.52 "Hg15 mi
7:00 PM30 °FPassing clouds.No wind64%30.51 "Hg15 mi
6:00 PM30 °FPartly sunny.3 mph59%30.51 "Hg15 mi
5:00 PM32 °FPartly sunny.5 mph60%30.52 "Hg15 mi
4:00 PM34 °FPartly sunny.10 mph56%30.52 "Hg15 mi
3:00 PM34 °FPartly sunny.7 mph56%30.53 "Hg15 mi
2:00 PM34 °FPartly sunny.6 mph56%30.57 "Hg15 mi
1:00 PM32 °FOvercast.6 mph60%30.57 "Hg15 mi
12:00 PM30 °FOvercast.9 mph59%30.59 "Hg15 mi
11:00 AM30 °FOvercast.8 mph59%30.60 "Hg15 mi
10:00 AM28 °FMostly cloudy.6 mph69%30.62 "Hg15 mi
9:00 AM28 °FMostly cloudy.5 mph69%30.61 "Hg15 mi
8:00 AM27 °FOvercast.3 mph74%30.59 "Hg15 mi
7:00 AM27 °FOvercast.6 mph74%30.57 "Hg15 mi
6:00 AM27 °FOvercast.5 mph74%30.56 "Hg15 mi
5:00 AM27 °FOvercast.7 mph74%30.55 "Hg15 mi
4:00 AM25 °FOvercast.5 mph80%30.55 "Hg15 mi
3:00 AM25 °FOvercast.6 mph80%30.54 "Hg15 mi
2:00 AM23 °FPassing clouds.5 mph86%30.54 "Hg15 mi
1:00 AM25 °FPassing clouds.7 mph80%30.55 "Hg15 mi
12:00 AM27 °FPassing clouds.7 mph74%30.54 "Hg15 mi
11:00 PM
Tue, Oct 25
27 °FPassing clouds.8 mph74%30.54 "Hg15 mi
10:00 PM28 °FPassing clouds.9 mph69%30.53 "Hg15 mi
9:00 PM27 °FPassing clouds.8 mph69%30.53 "Hg15 mi
Weather by CustomWeather, © 2016

See weather overviewHow to use our weather pages